This demonstration page uses our WeatherBlox Daily Observations layout. Learn more.

Left ArrowRight Arrow

Hourly Observations for October 17, 2015

Temp ( °F °C ) Dew Point ( °F °C ) Humidity (%) Winds ( mph kmh ) Pressure ( in mb ) Visibility ( mi km ) Precip ( " mm )
12:15 am 00:15 Clear 45 7 39 4 81 81 SW 5 7 30.15 1021 10 16 N/A
12:35 am 00:35 Clear 45 7 41 5 87 87 SW 3 6 30.15 1021 10 16 N/A
12:55 am 00:55 Clear 43 6 39 4 87 87 WSW 5 7 30.15 1021 10 16 N/A
1:15 am 01:15 Clear 43 6 41 5 93 93 WSW 5 7 30.15 1021 10 16 N/A
1:35 am 01:35 Clear 45 7 39 4 81 81 W 5 7 30.15 1021 10 16 N/A
1:55 am 01:55 Clear 43 6 41 5 93 93 W 6 9 30.15 1021 10 16 N/A
2:15 am 02:15 Clear 45 7 37 3 76 76 W 7 11 30.15 1021 10 16 N/A
2:35 am 02:35 Clear 45 7 37 3 76 76 W 8 13 30.18 1022 10 16 N/A
2:55 am 02:55 Clear 46 8 37 3 71 71 WNW 5 7 30.18 1022 10 16 N/A
3:15 am 03:15 Clear 45 7 37 3 76 76 W 6 9 30.18 1022 10 16 N/A
3:35 am 03:35 Clear 43 6 37 3 81 81 W 6 9 30.18 1022 10 16 N/A
3:55 am 03:55 Clear 45 7 37 3 76 76 WNW 5 7 30.18 1022 10 16 N/A
4:15 am 04:15 Clear 45 7 37 3 76 76 WNW 5 7 30.18 1022 10 16 N/A
4:35 am 04:35 Clear 45 7 37 3 76 76 NW 5 7 30.18 1022 10 16 N/A
4:55 am 04:55 Clear 45 7 37 3 76 76 NW 7 11 30.18 1022 10 16 N/A
5:15 am 05:15 Clear 46 8 37 3 71 71 NW 5 7 30.18 1022 10 16 N/A
5:35 am 05:35 Clear 46 8 39 4 76 76 N N/A 30.18 1022 10 16 N/A
5:55 am 05:55 Clear 46 8 39 4 76 76 NW 5 7 30.18 1022 10 16 N/A
6:15 am 06:15 Clear 46 8 39 4 76 76 WNW 3 6 30.18 1022 10 16 N/A
6:35 am 06:35 Clear 45 7 39 4 81 81 SW 5 7 30.18 1022 10 16 N/A
6:55 am 06:55 Clear 46 8 39 4 76 76 WSW 3 6 30.18 1022 10 16 N/A
7:15 am 07:15 Clear 41 5 39 4 93 93 SW 5 7 30.18 1022 10 16 N/A
7:35 am 07:35 Sunny 43 6 39 4 87 87 SW 3 6 30.21 1023 10 16 N/A
7:55 am 07:55 Sunny 43 6 39 4 87 87 N N/A 30.21 1023 10 16 N/A
8:15 am 08:15 Sunny 45 7 41 5 87 87 SSW 5 7 30.21 1023 10 16 N/A
8:35 am 08:35 Sunny 50 10 41 5 71 71 SSW 5 7 30.24 1024 10 16 N/A
8:55 am 08:55 Sunny 52 11 43 6 72 72 SSW 3 6 30.24 1024 10 16 N/A
9:15 am 09:15 Partly Cloudy 52 11 43 6 72 72 SW 5 7 30.24 1024 10 16 N/A
9:35 am 09:35 Partly Cloudy 54 12 43 6 67 67 N N/A 30.21 1023 10 16 N/A
9:55 am 09:55 Mostly Cloudy 54 12 41 5 63 63 NNW 3 6 30.21 1023 10 16 N/A
10:15 am 10:15 Cloudy 54 12 41 5 63 63 undefined N/A 30.21 1023 10 16 N/A
10:35 am 10:35 Cloudy 54 12 41 5 63 63 NNW 8 13 30.21 1023 10 16 N/A
10:55 am 10:55 Cloudy 54 12 43 6 67 67 NW 8 13 30.21 1023 10 16 N/A
11:15 am 11:15 Cloudy 54 12 41 5 63 63 NW 14 22 30.21 1023 10 16 N/A
11:35 am 11:35 Cloudy 54 12 37 3 54 54 NNW 13 20 30.21 1023 10 16 N/A
11:55 am 11:55 Cloudy 54 12 37 3 54 54 NW 8 13 30.21 1023 10 16 N/A
12:15 pm 12:15 Cloudy 54 12 37 3 54 54 NW 16 26 30.21 1023 10 16 N/A
12:35 pm 12:35 Cloudy 54 12 36 2 51 51 NW 12 19 30.21 1023 10 16 N/A
12:55 pm 12:55 Cloudy 54 12 36 2 51 51 NW 9 15 30.21 1023 10 16 N/A
1:15 pm 13:15 Cloudy 54 12 34 1 47 47 WNW 15 24 30.21 1023 10 16 N/A
1:35 pm 13:35 Cloudy 55 13 32 undefined 41 41 NNW 15 24 30.21 1023 10 16 N/A
1:55 pm 13:55 Cloudy 55 13 34 1 44 44 NW 13 20 30.18 1022 10 16 N/A
2:15 pm 14:15 Cloudy 55 13 36 2 47 47 NNW 16 26 30.21 1023 10 16 N/A
2:35 pm 14:35 Cloudy 55 13 34 1 44 44 N 15 24 30.21 1023 10 16 N/A
2:55 pm 14:55 Cloudy 54 12 36 2 51 51 NW 13 20 30.21 1023 10 16 N/A
3:15 pm 15:15 Cloudy 54 12 34 1 47 47 NW 10 17 30.21 1023 10 16 N/A
3:35 pm 15:35 Cloudy 54 12 36 2 51 51 WNW 14 22 30.21 1023 10 16 N/A
3:55 pm 15:55 Mostly Cloudy 54 12 36 2 51 51 WNW 16 26 30.21 1023 10 16 N/A
4:15 pm 16:15 Mostly Cloudy 54 12 36 2 51 51 WNW 15 24 30.21 1023 10 16 N/A
4:35 pm 16:35 Mostly Cloudy 52 11 34 1 50 50 NW 18 30 30.24 1024 10 16 N/A
4:55 pm 16:55 Mostly Cloudy 52 11 34 1 50 50 W 20 31 30.24 1024 10 16 N/A
5:15 pm 17:15 Partly Cloudy 52 11 36 2 54 54 WNW 15 24 30.27 1025 10 16 N/A
5:35 pm 17:35 Sunny 50 10 34 1 54 54 WNW 21 33 30.27 1025 10 16 N/A
5:55 pm 17:55 Sunny 50 10 34 1 54 54 WNW 15 24 30.27 1025 10 16 N/A
6:15 pm 18:15 Partly Cloudy 48 9 34 1 58 58 WNW 14 22 30.27 1025 10 16 N/A
6:35 pm 18:35 Mostly Cloudy 48 9 34 1 58 58 WNW 18 30 30.27 1025 10 16 N/A
6:55 pm 18:55 Cloudy 46 8 34 1 62 62 WNW 20 31 30.30 1026 10 16 N/A
7:15 pm 19:15 Partly Cloudy 46 8 32 undefined 57 57 WNW 13 20 30.30 1026 10 16 N/A
7:35 pm 19:35 Mostly Cloudy 46 8 32 undefined 57 57 WNW 15 24 30.30 1026 10 16 N/A
7:55 pm 19:55 Cloudy 46 8 32 undefined 57 57 WNW 16 26 30.30 1026 10 16 N/A
8:15 pm 20:15 Cloudy 46 8 32 undefined 57 57 WNW 14 22 30.30 1026 10 16 N/A
8:35 pm 20:35 Partly Cloudy 45 7 32 undefined 61 61 WNW 12 19 30.33 1027 10 16 N/A
8:55 pm 20:55 Clear 45 7 32 undefined 61 61 WNW 9 15 30.33 1027 10 16 N/A
9:15 pm 21:15 Partly Cloudy 45 7 32 undefined 61 61 WNW 13 20 30.33 1027 10 16 N/A
9:35 pm 21:35 Partly Cloudy 45 7 32 undefined 61 61 WNW 10 17 30.33 1027 10 16 N/A
9:55 pm 21:55 Partly Cloudy 41 5 32 undefined 70 70 WNW 7 11 30.33 1027 10 16 N/A
10:15 pm 22:15 Clear 41 5 32 undefined 70 70 WNW 7 11 30.33 1027 10 16 N/A
10:35 pm 22:35 Clear 43 6 32 undefined 66 66 NW 6 9 30.33 1027 10 16 N/A
10:55 pm 22:55 Clear 43 6 32 undefined 66 66 NNW 6 9 30.33 1027 10 16 N/A
11:15 pm 23:15 Clear 41 5 32 undefined 70 70 NNW 7 11 30.33 1027 10 16 N/A
11:35 pm 23:35 Clear 37 3 32 undefined 81 81 NW 8 13 30.33 1027 10 16 N/A
11:55 pm 23:55 Clear 37 3 32 undefined 81 81 NW 7 11 30.33 1027 10 16 N/A

Powered by AerisWeather